EW5660 Weather Reports


Display with metric or nautical units.
time (UTC)temp
F
wind
direction
speed
MPH
gust
MPH
rain 1hr
in
rain 24hr
in
rain mn
in
humidity
%
barometer
mb
20180422201403 61 65 4.0 15.0 0.00 0.00 0.00 28 1026.6
20180422200847 60 100 3.0 10.0 0.00 0.00 0.00 28 1026.7
20180422200313 60 96 3.0 10.0 0.00 0.00 0.00 27 1026.8
20180422195857 60 70 2.0 11.0 0.00 0.00 0.00 29 1026.8
20180422195341 60 123 6.0 16.0 0.00 0.00 0.00 29 1026.9
20180422194809 60 81 8.0 17.0 0.00 0.00 0.00 28 1027.0
20180422194333 60 130 11.0 17.0 0.00 0.00 0.00 27 1027.0
20180422193857 60 97 1.0 11.0 0.00 0.00 0.00 28 1026.9
20180422193341 60 140 5.0 11.0 0.00 0.00 0.00 27 1027.2
20180422192824 61 63 3.0 11.0 0.00 0.00 0.00 27 1027.3
20180422192349 60 127 6.0 12.0 0.00 0.00 0.00 28 1027.4
20180422191834 59 130 0.0 11.0 0.00 0.00 0.00 27 1027.5
20180422191318 60 156 5.0 12.0 0.00 0.00 0.00 27 1027.5
20180422190902 60 115 4.0 12.0 0.00 0.00 0.00 27 1027.6
20180422190328 60 102 5.0 10.0 0.00 0.00 0.00 28 1027.6
20180422185851 60 73 2.0 10.0 0.00 0.00 0.00 27 1027.6
20180422185320 60 104 1.0 8.0 0.00 0.00 0.00 29 1027.6
20180422184839 59 108 2.0 10.0 0.00 0.00 0.00 29 1027.6
20180422184404 59 142 3.0 10.0 0.00 0.00 0.00 28 1027.6
20180422183846 59 104 1.0 13.0 0.00 0.00 0.00 29 1027.7
20180422183329 59 133 6.0 14.0 0.00 0.00 0.00 28 1027.7
20180422182813 59 127 5.0 15.0 0.00 0.00 0.00 30 1027.7
20180422182358 59 112 3.0 17.0 0.00 0.00 0.00 29 1027.7
20180422181842 59 96 12.0 17.0 0.00 0.00 0.00 29 1027.9
20180422181325 59 79 5.0 13.0 0.00 0.00 0.00 29 1027.9
20180422180849 59 106 4.0 13.0 0.00 0.00 0.00 30 1027.8
20180422180319 59 132 4.0 17.0 0.00 0.00 0.00 30 1027.9
20180422175843 58 79 3.0 12.0 0.00 0.00 0.00 31 1028.0
20180422175329 59 98 3.0 14.0 0.00 0.00 0.00 30 1028.1
20180422174848 59 111 9.0 14.0 0.00 0.00 0.00 31 1028.1
20180422174331 58 140 0.0 10.0 0.00 0.00 0.00 31 1028.1
20180422173816 58 123 6.0 15.0 0.00 0.00 0.00 31 1028.3
20180422173400 58 126 7.0 15.0 0.00 0.00 0.00 31 1028.2
20180422172843 58 80 5.0 12.0 0.00 0.00 0.00 31 1028.4
20180422172328 59 63 0.0 10.0 0.00 0.00 0.00 31 1028.4
20180422171811 58 86 5.0 9.0 0.00 0.00 0.00 31 1028.5
20180422171356 58 84 3.0 9.0 0.00 0.00 0.00 32 1028.6
20180422170823 58 52 4.0 13.0 0.00 0.00 0.00 30 1028.6
20180422170349 58 49 6.0 13.0 0.00 0.00 0.00 31 1028.7
20180422165831 58 40 3.0 13.0 0.00 0.00 0.00 34 1028.7
20180422165316 57 66 3.0 10.0 0.00 0.00 0.00 32 1028.8
20180422164858 57 67 3.0 12.0 0.00 0.00 0.00 32 1028.9
20180422164342 57 125 6.0 12.0 0.00 0.00 0.00 31 1028.9
20180422163826 57 132 3.0 11.0 0.00 0.00 0.00 34 1028.9
20180422163350 57 108 3.0 12.0 0.00 0.00 0.00 33 1029.0
20180422162833 57 128 4.0 12.0 0.00 0.00 0.00 33 1029.0
20180422162318 57 84 4.0 16.0 0.00 0.00 0.00 32 1029.0
20180422161905 57 85 7.0 16.0 0.00 0.00 0.00 32 1029.0
20180422161330 56 97 1.0 12.0 0.00 0.00 0.00 33 1029.0
20180422160814 56 100 8.0 12.0 0.00 0.00 0.00 33 1029.2
20180422160341 56 97 2.0 14.0 0.00 0.00 0.00 32 1029.2
20180422155825 57 127 5.0 12.0 0.00 0.00 0.00 32 1029.2
20180422155350 56 137 1.0 13.0 0.00 0.00 0.00 34 1029.1
20180422154834 56 96 5.0 14.0 0.00 0.00 0.00 32 1029.3
20180422154318 56 78 9.0 16.0 0.00 0.00 0.00 34 1029.3
20180422153904 56 115 10.0 16.0 0.00 0.00 0.00 33 1029.3
20180422153347 57 78 6.0 11.0 0.00 0.00 0.00 34 1029.4
20180422152814 56 96 5.0 11.0 0.00 0.00 0.00 35 1029.3
20180422152339 56 341 1.0 10.0 0.00 0.00 0.00 34 1029.3
20180422151817 55 88 3.0 10.0 0.00 0.00 0.00 34 1029.3
20180422151342 55 103 6.0 14.0 0.00 0.00 0.00 33 1029.3
20180422150907 55 108 8.0 14.0 0.00 0.00 0.00 35 1029.3
20180422150329 55 124 7.0 14.0 0.00 0.00 0.00 34 1029.3
20180422145853 55 131 10.0 16.0 0.00 0.00 0.00 33 1029.4
20180422145336 55 139 8.0 14.0 0.00 0.00 0.00 35 1029.2
20180422144819 54 117 8.0 14.0 0.00 0.00 0.00 35 1029.3
20180422144405 54 97 9.0 14.0 0.00 0.00 0.00 34 1029.3
20180422143848 54 125 8.0 13.0 0.00 0.00 0.00 35 1029.3
20180422143316 54 136 4.0 10.0 0.00 0.00 0.00 36 1029.3
20180422142857 54 122 6.0 13.0 0.00 0.00 0.00 36 1029.4
20180422142323 53 86 5.0 13.0 0.00 0.00 0.00 37 1029.4
20180422141848 53 120 6.0 11.0 0.00 0.00 0.00 38 1029.4
20180422141332 53 150 4.0 10.0 0.00 0.00 0.00 39 1029.4
20180422140817 53 125 5.0 14.0 0.00 0.00 0.00 39 1029.5
20180422140345 53 90 8.0 14.0 0.00 0.00 0.00 40 1029.5
20180422135827 52 121 6.0 13.0 0.00 0.00 0.00 40 1029.6
20180422135351 52 90 6.0 11.0 0.00 0.00 0.00 40 1029.6
20180422134836 51 129 6.0 11.0 0.00 0.00 0.00 42 1029.6
20180422134319 51 119 4.0 11.0 0.00 0.00 0.00 42 1029.6
20180422133905 50 118 5.0 10.0 0.00 0.00 0.00 42 1029.6
20180422133333 50 101 7.0 13.0 0.00 0.00 0.00 42 1029.6
20180422132857 50 120 6.0 13.0 0.00 0.00 0.00 42 1029.6
20180422132340 49 110 7.0 10.0 0.00 0.00 0.00 41 1029.6
20180422131825 49 119 4.0 8.0 0.00 0.00 0.00 43 1029.5
20180422131310 48 134 5.0 8.0 0.00 0.00 0.00 44 1029.5
20180422130854 48 136 4.0 7.0 0.00 0.00 0.00 47 1029.5
20180422130320 46 128 4.0 7.0 0.00 0.00 0.00 50 1029.5
20180422125905 44 142 0.0 0.0 0.00 0.00 0.00 59 1029.5
20180422125347 43 142 0.0 0.0 0.00 0.00 0.00 64 1029.5
20180422124814 42 142 0.0 0.0 0.00 0.00 0.00 67 1029.5
20180422124352 41 142 0.0 0.0 0.00 0.00 0.00 68 1029.4
20180422123819 40 142 0.0 0.0 0.00 0.00 0.00 70 1029.4
20180422123343 40 142 0.0 0.0 0.00 0.00 0.00 72 1029.4
20180422122827 39 142 0.0 0.0 0.00 0.00 0.00 74 1029.4
20180422122351 38 142 0.0 0.0 0.00 0.00 0.00 75 1029.4
20180422121834 37 142 0.0 0.0 0.00 0.00 0.00 76 1029.5
20180422121316 36 142 0.0 0.0 0.00 0.00 0.00 77 1029.5
20180422120901 35 142 0.0 0.0 0.00 0.00 0.00 76 1029.4
20180422120327 35 142 0.0 0.0 0.00 0.00 0.00 75 1029.4
20180422115850 35 142 0.0 0.0 0.00 0.00 0.00 75 1029.3
20180422115318 34 142 0.0 0.0 0.00 0.00 0.00 77 1029.3
20180422114859 34 142 0.0 0.0 0.00 0.00 0.00 76 1029.4
20180422114326 34 142 0.0 0.0 0.00 0.00 0.00 78 1029.4
20180422113850 33 142 0.0 0.0 0.00 0.00 0.00 79 1029.4
20180422113331 32 142 0.0 0.0 0.00 0.00 0.00 80 1029.4
20180422112814 31 142 0.0 0.0 0.00 0.00 0.00 80 1029.4
20180422112357 31 142 0.0 0.0 0.00 0.00 0.00 80 1029.3
20180422111841 31 142 0.0 0.0 0.00 0.00 0.00 80 1029.2
20180422111324 31 142 0.0 0.0 0.00 0.00 0.00 80 1029.2
20180422110849 31 142 0.0 0.0 0.00 0.00 0.00 79 1029.2
20180422110315 31 142 0.0 0.0 0.00 0.00 0.00 80 1029.1
20180422105857 31 142 0.0 0.0 0.00 0.00 0.00 80 1029.2
20180422105324 31 142 0.0 0.0 0.00 0.00 0.00 78 1029.0
20180422104849 31 142 0.0 0.0 0.00 0.00 0.00 78 1029.0
20180422104332 32 142 0.0 0.0 0.00 0.00 0.00 79 1028.9
20180422103815 32 142 0.0 0.0 0.00 0.00 0.00 81 1028.8
20180422103358 32 142 0.0 0.0 0.00 0.00 0.00 79 1028.8
20180422102842 32 142 0.0 0.0 0.00 0.00 0.00 77 1028.8
20180422102325 32 142 0.0 0.0 0.00 0.00 0.00 78 1028.8
20180422101849 32 142 0.0 0.0 0.00 0.00 0.00 78 1028.7
20180422101333 32 142 0.0 0.0 0.00 0.00 0.00 76 1028.6
20180422100817 32 142 0.0 0.0 0.00 0.00 0.00 76 1028.6
20180422100344 32 142 0.0 0.0 0.00 0.00 0.00 76 1028.5
20180422095811 32 142 0.0 0.0 0.00 0.00 0.00 73 1028.4
20180422095334 32 142 0.0 0.0 0.00 0.00 0.00 72 1028.2
20180422094900 32 142 0.0 0.0 0.00 0.00 0.00 75 1028.2
20180422094343 32 142 0.0 0.0 0.00 0.00 0.00 75 1028.1
20180422093826 32 142 0.0 0.0 0.00 0.00 0.00 75 1028.2
20180422093310 33 142 0.0 0.0 0.00 0.00 0.00 75 1028.2
20180422092854 33 142 0.0 0.0 0.00 0.00 0.00 77 1028.2
20180422092335 33 142 0.0 0.0 0.00 0.00 0.00 77 1028.1
20180422091818 33 142 0.0 0.0 0.00 0.00 0.00 77 1028.1
20180422091403 33 142 0.0 0.0 0.00 0.00 0.00 77 1028.1
20180422090846 33 142 0.0 0.0 0.00 0.00 0.00 78 1028.1
20180422090316 33 142 0.0 0.0 0.00 0.00 0.00 77 1028.1
20180422085839 33 142 0.0 0.0 0.00 0.00 0.00 77 1028.1
20180422085322 33 142 0.0 0.0 0.00 0.00 0.00 76 1028.1
20180422084905 33 142 0.0 0.0 0.00 0.00 0.00 75 1028.1
20180422084346 33 142 0.0 0.0 0.00 0.00 0.00 75 1028.1
20180422083825 33 142 0.0 0.0 0.00 0.00 0.00 73 1028.1
20180422083349 33 142 0.0 0.0 0.00 0.00 0.00 75 1028.0
20180422082832 33 142 0.0 0.0 0.00 0.00 0.00 77 1028.0
20180422082315 33 142 0.0 0.0 0.00 0.00 0.00 74 1028.1
20180422081859 33 142 0.0 0.0 0.00 0.00 0.00 69 1028.1
20180422081342 34 142 0.0 0.0 0.00 0.00 0.00 68 1028.1
20180422080809 34 142 0.0 0.0 0.00 0.00 0.00 69 1028.2
20180422080336 34 142 0.0 0.0 0.00 0.00 0.00 72 1028.2
20180422075819 34 142 0.0 0.0 0.00 0.00 0.00 74 1028.3
20180422075403 35 142 0.0 0.0 0.00 0.00 0.00 73 1028.3
20180422074849 35 142 0.0 0.0 0.00 0.00 0.00 73 1028.4
20180422074329 35 142 0.0 0.0 0.00 0.00 0.00 75 1028.4
20180422073853 35 142 0.0 0.0 0.00 0.00 0.00 71 1028.4
20180422073336 36 142 0.0 0.0 0.00 0.00 0.00 70 1028.5
20180422072816 36 142 0.0 0.0 0.00 0.00 0.00 72 1028.6
20180422072401 36 142 0.0 0.0 0.00 0.00 0.00 74 1028.6
20180422071845 36 142 0.0 0.0 0.00 0.00 0.00 71 1028.5
20180422071313 36 142 0.0 0.0 0.00 0.00 0.00 69 1028.6
20180422070834 36 142 0.0 0.0 0.00 0.00 0.00 69 1028.6
20180422070401 36 142 0.0 0.0 0.00 0.00 0.00 69 1028.6
20180422065845 37 142 0.0 0.0 0.00 0.00 0.00 68 1028.7
20180422065329 37 142 0.0 0.0 0.00 0.00 0.00 68 1028.7
20180422064853 38 142 0.0 0.0 0.00 0.00 0.00 67 1028.7
20180422064339 38 142 0.0 0.0 0.00 0.00 0.00 68 1028.7
20180422063818 38 142 0.0 0.0 0.00 0.00 0.00 68 1028.7
20180422063403 38 142 0.0 0.0 0.00 0.00 0.00 65 1028.8
20180422062847 38 142 0.0 0.0 0.00 0.00 0.00 65 1028.7
20180422062314 38 142 0.0 0.0 0.00 0.00 0.00 64 1028.8
20180422061838 39 142 0.0 0.0 0.00 0.00 0.00 63 1028.8
20180422061403 39 142 0.0 0.0 0.00 0.00 0.00 62 1028.7
20180422060846 39 142 0.0 0.0 0.00 0.00 0.00 61 1028.8
20180422060312 39 142 0.0 0.0 0.00 0.00 0.00 60 1028.8
20180422055817 39 142 0.0 0.0 0.00 0.00 0.00 60 1028.8
20180422055325 39 142 0.0 0.0 0.00 0.00 0.00 64 1028.8
20180422054813 39 142 0.0 0.0 0.00 0.00 0.00 64 1028.8
20180422054321 39 142 0.0 0.0 0.00 0.00 0.00 65 1028.9
20180422053813 40 142 0.0 0.0 0.00 0.00 0.00 62 1028.8
20180422053321 40 142 0.0 0.0 0.00 0.00 0.00 60 1028.9
20180422052809 41 142 0.0 0.0 0.00 0.00 0.00 60 1028.8
20180422052317 41 142 0.0 0.0 0.00 0.00 0.00 61 1028.9
20180422051825 41 142 0.0 0.0 0.00 0.00 0.00 60 1028.9
20180422051313 41 142 0.0 0.0 0.00 0.00 0.00 58 1028.9
20180422050821 42 142 0.0 0.0 0.00 0.00 0.00 58 1028.8
20180422050311 42 142 0.0 0.0 0.00 0.00 0.00 58 1028.8
20180422045817 42 142 0.0 0.0 0.00 0.00 0.00 55 1028.8
20180422045309 42 142 0.0 0.0 0.00 0.00 0.00 55 1028.8
20180422044817 42 142 0.0 0.0 0.00 0.00 0.00 55 1028.8
20180422044325 42 142 0.0 0.0 0.00 0.00 0.00 55 1028.8
20180422043813 42 142 0.0 0.0 0.00 0.00 0.00 57 1028.8
20180422043321 43 142 0.0 0.0 0.00 0.00 0.00 54 1028.8
20180422042809 43 142 0.0 0.0 0.00 0.00 0.00 53 1028.8
20180422042317 43 142 0.0 0.0 0.00 0.00 0.00 54 1028.8
20180422041825 43 142 0.0 2.0 0.00 0.00 0.00 51 1028.8
20180422041313 44 142 0.0 2.0 0.00 0.00 0.00 49 1028.9
20180422040820 44 142 0.0 3.0 0.00 0.00 0.00 48 1028.9
20180422040313 44 142 0.0 2.0 0.00 0.00 0.00 48 1028.9
20180422035818 44 142 0.0 4.0 0.00 0.00 0.00 49 1028.9
20180422035345 45 143 0.0 4.0 0.00 0.00 0.00 48 1028.9
20180422034825 45 144 1.0 4.0 0.00 0.00 0.00 47 1028.9
20180422034350 45 144 0.0 5.0 0.00 0.00 0.00 48 1028.9
20180422033834 45 144 1.0 5.0 0.00 0.00 0.00 49 1028.9
20180422033317 45 147 2.0 5.0 0.00 0.00 0.00 50 1028.9
20180422032859 45 151 3.0 6.0 0.00 0.00 0.00 52 1028.9
20180422032343 45 153 3.0 6.0 0.00 0.00 0.00 50 1028.9
20180422031826 46 150 3.0 7.0 0.00 0.00 0.00 50 1028.9
20180422031350 46 147 5.0 7.0 0.00 0.00 0.00 48 1029.0
20180422030817 46 136 3.0 6.0 0.00 0.00 0.00 50 1028.9
20180422030344 46 144 3.0 6.0 0.00 0.00 0.00 50 1028.9
20180422025826 46 144 3.0 6.0 0.00 0.00 0.00 50 1028.9
20180422025351 47 144 3.0 6.0 0.00 0.00 0.00 50 1028.9
20180422024836 47 144 4.0 7.0 0.00 0.00 0.00 50 1028.9
20180422024319 47 150 5.0 7.0 0.00 0.00 0.00 52 1028.8
20180422023902 46 143 4.0 7.0 0.00 0.00 0.00 53 1028.8
20180422023346 46 150 3.0 6.0 0.00 0.00 0.00 55 1028.8
20180422022828 46 152 4.0 6.0 0.00 0.00 0.00 56 1028.8
20180422022312 47 152 4.0 7.0 0.00 0.00 0.00 55 1028.8
20180422021857 47 150 5.0 6.0 0.00 0.00 0.00 55 1028.8
20180422021324 47 151 4.0 7.0 0.00 0.00 0.00 55 1028.8
20180422020809 47 146 4.0 6.0 0.00 0.00 0.00 56 1028.7
20180422020335 47 147 4.0 6.0 0.00 0.00 0.00 55 1028.7
20180422015819 47 151 3.0 6.0 0.00 0.00 0.00 54 1028.7
20180422015403 47 151 4.0 7.0 0.00 0.00 0.00 54 1028.6
20180422014846 47 151 5.0 8.0 0.00 0.00 0.00 54 1028.6
20180422014329 46 152 5.0 8.0 0.00 0.00 0.00 55 1028.6
20180422013813 45 175 2.0 5.0 0.00 0.00 0.00 56 1028.6
20180422013358 46 186 0.0 0.0 0.00 0.00 0.00 55 1028.4
20180422012841 47 186 0.0 4.0 0.00 0.00 0.00 52 1028.4
20180422012309 47 186 1.0 4.0 0.00 0.00 0.00 51 1028.3
20180422011833 48 213 0.0 0.0 0.00 0.00 0.00 50 1028.3
20180422011353 49 213 0.0 0.0 0.00 0.00 0.00 52 1028.2
20180422010838 49 213 0.0 0.0 0.00 0.00 0.00 48 1028.2
20180422010401 50 213 0.0 0.0 0.00 0.00 0.00 47 1028.1
20180422005843 50 213 0.0 0.0 0.00 0.00 0.00 47 1028.1
20180422005326 50 213 0.0 0.0 0.00 0.00 0.00 44 1028.1
20180422004850 51 213 0.0 0.0 0.00 0.00 0.00 43 1028.2
20180422004334 51 213 0.0 0.0 0.00 0.00 0.00 41 1028.1
20180422003818 52 213 0.0 0.0 0.00 0.00 0.00 41 1028.1
20180422003403 52 213 0.0 0.0 0.00 0.00 0.00 44 1028.1
20180422002843 53 213 0.0 0.0 0.00 0.00 0.00 39 1028.1
20180422002311 54 213 0.0 0.0 0.00 0.00 0.00 39 1028.1
20180422001834 55 213 0.0 0.0 0.00 0.00 0.00 40 1028.0
20180422001317 55 213 0.0 0.0 0.00 0.00 0.00 36 1028.0
20180422000903 55 213 0.0 0.0 0.00 0.00 0.00 36 1028.0
20180422000329 55 213 0.0 0.0 0.00 0.00 0.00 37 1028.0
20180421235811 55 213 0.0 0.0 0.00 0.00 0.00 36 1027.9
20180421235355 56 213 0.0 0.0 0.00 0.00 0.00 34 1028.0
20180421234837 56 213 0.0 0.0 0.00 0.00 0.00 34 1027.9
20180421234317 56 213 0.0 0.0 0.00 0.00 0.00 32 1027.9
20180421233858 56 213 0.0 0.0 0.00 0.00 0.00 32 1027.9
20180421233321 57 213 0.0 0.0 0.00 0.00 0.00 32 1027.9
20180421232901 57 213 0.0 3.0 0.00 0.00 0.00 31 1028.0
20180421232328 57 213 1.0 3.0 0.00 0.00 0.00 31 1028.1
20180421231811 57 213 0.0 0.0 0.00 0.00 0.00 31 1028.2
20180421231354 57 213 0.0 0.0 0.00 0.00 0.00 32 1028.2
20180421230839 57 213 0.0 4.0 0.00 0.00 0.00 31 1028.3
20180421230406 57 213 1.0 4.0 0.00 0.00 0.00 31 1028.3
20180421225848 57 212 0.0 0.0 0.00 0.00 0.00 31 1028.3
20180421225331 57 212 0.0 3.0 0.00 0.00 0.00 31 1028.4
20180421224815 57 212 0.0 3.0 0.00 0.00 0.00 32 1028.4
20180421224359 57 212 0.0 0.0 0.00 0.00 0.00 33 1028.3
20180421223843 57 212 0.0 2.0 0.00 0.00 0.00 32 1028.3
20180421223311 57 212 0.0 5.0 0.00 0.00 0.00 32 1028.3
20180421222835 57 212 1.0 5.0 0.00 0.00 0.00 32 1028.3
20180421222359 57 213 1.0 4.0 0.00 0.00 0.00 32 1028.4
20180421221842 57 207 2.0 5.0 0.00 0.00 0.00 32 1028.4
20180421221326 57 213 1.0 3.0 0.00 0.00 0.00 32 1028.5
20180421220851 57 213 0.0 0.0 0.00 0.00 0.00 32 1028.4
20180421220317 57 213 0.0 2.0 0.00 0.00 0.00 32 1028.5
20180421215900 57 213 0.0 5.0 0.00 0.00 0.00 32 1028.5
20180421215343 57 213 0.0 5.0 0.00 0.00 0.00 32 1028.6
20180421214827 57 223 1.0 4.0 0.00 0.00 0.00 32 1028.6
20180421214351 57 224 0.0 4.0 0.00 0.00 0.00 33 1028.6
20180421213814 57 224 1.0 4.0 0.00 0.00 0.00 31 1028.7
20180421213338 57 228 2.0 4.0 0.00 0.00 0.00 32 1028.7
20180421212906 57 216 0.0 4.0 0.00 0.00 0.00 32 1028.6
20180421212346 57 215 1.0 5.0 0.00 0.00 0.00 31 1028.7
20180421211829 57 224 0.0 5.0 0.00 0.00 0.00 32 1028.6
20180421211353 57 246 2.0 5.0 0.00 0.00 0.00 32 1028.6
20180421210836 57 182 0.0 3.0 0.00 0.00 0.00 32 1028.6
20180421210403 57 175 0.0 3.0 0.00 0.00 0.00 32 1028.6
20180421205848 56 175 0.0 5.0 0.00 0.00 0.00 33 1028.7
20180421205313 57 201 2.0 6.0 0.00 0.00 0.00 32 1028.7
20180421204836 57 239 1.0 3.0 0.00 0.00 0.00 33 1028.7
20180421204400 56 274 0.0 6.0 0.00 0.00 0.00 32 1028.7
20180421203825 56 267 1.0 5.0 0.00 0.00 0.00 33 1028.7
20180421203350 56 267 2.0 7.0 0.00 0.00 0.00 31 1028.7
20180421202835 57 286 1.0 6.0 0.00 0.00 0.00 33 1028.6
20180421202318 56 240 2.0 5.0 0.00 0.00 0.00 32 1028.6
20180421201903 56 211 1.0 5.0 0.00 0.00 0.00 32 1028.8